Date String (YYYY-MM-DD hh:mm:ss) UTC,Instrument flags,Ambient pressure (hPa),Sample flow (lpm),Bypass flow (lpm),Sample temperature (°C),Ambient temperature (°C),ASC tube jacket temperature (°C),LED temperature (°C),Box temperature (°C),Sample RH (%),Span deviation,Mass concentration (μg/m³),Mass concentration (μg/m³),Mass concentration (μg/m³)
DateTimeUTC,F1_M11,P_M11,Q1_M11,Q2_M11,T1_M11,T2_M11,T3_M11,T4_M11,T5_M11,U1_M11,ZSPAN_M11,X0_M11,X2_M11,X1_M11
2022-08-18 23:00:00,,0829.1,5.00,0.00,29.5,28.4,00.0,38.1,31.4,20.3,0000.0,0014.55,0006.34,0005.72
2022-08-18 23:01:00,,0829.0,4.99,0.00,29.5,28.2,00.0,38.1,31.4,20.2,0000.0,0014.74,0006.27,0005.71
2022-08-18 23:02:00,,0829.0,5.00,0.00,29.4,27.5,00.0,38.1,31.2,20.7,0000.0,0015.15,0006.25,0005.70
2022-08-18 23:03:00,,0829.0,5.01,0.00,29.4,27.2,00.0,38.0,31.1,21.3,0000.0,0014.61,0006.24,0005.68
2022-08-18 23:04:00,,0829.0,4.99,0.00,29.3,27.2,00.0,38.0,31.1,20.9,0000.0,0014.32,0006.27,0005.67
2022-08-18 23:05:00,,0829.0,5.01,0.00,29.3,27.4,00.0,38.0,31.1,20.6,0000.0,0014.70,0006.31,0005.65
2022-08-18 23:06:00,,0829.0,4.99,0.00,29.3,27.6,00.0,38.0,31.1,20.6,0000.0,0014.29,0006.29,0005.64
2022-08-18 23:07:00,,0829.0,5.00,0.00,29.3,27.8,00.0,38.0,31.2,20.7,0000.0,0013.94,0006.28,0005.64
2022-08-18 23:08:00,,0829.0,5.00,0.00,29.4,28.0,00.0,38.1,31.3,21.2,0000.0,0013.90,0006.30,0005.63
2022-08-18 23:09:00,,0829.1,5.00,0.00,29.4,28.2,00.0,38.1,31.4,20.9,0000.0,0014.18,0006.33,0005.62
2022-08-18 23:10:00,,0829.1,5.00,0.00,29.5,28.4,00.0,38.1,31.5,20.6,0000.0,0014.84,0006.37,0005.61
2022-08-18 23:11:00,,0829.0,5.00,0.00,29.5,28.3,00.0,38.1,31.5,21.0,0000.0,0014.62,0006.43,0005.62
2022-08-18 23:12:00,,0829.1,4.99,0.00,29.5,27.6,00.0,38.1,31.3,21.7,0000.0,0014.90,0006.52,0005.64
2022-08-18 23:13:00,,0829.0,5.01,0.00,29.4,27.2,00.0,38.0,31.1,22.0,0000.0,0013.76,0006.56,0005.65
2022-08-18 23:14:00,,0829.1,5.00,0.00,29.4,27.2,00.0,38.0,31.1,21.2,0000.0,0014.29,0006.55,0005.65
2022-08-18 23:15:00,,0829.1,5.01,0.00,29.3,27.4,00.0,38.0,31.1,20.7,0000.0,0014.87,0006.54,0005.64
2022-08-18 23:16:00,,0829.0,4.99,0.00,29.3,27.5,00.0,38.0,31.2,20.6,0000.0,0015.57,0006.55,0005.65
2022-08-18 23:17:00,,0829.0,5.00,0.00,29.3,27.8,00.0,38.1,31.2,20.5,0000.0,0016.09,0006.58,0005.66
2022-08-18 23:18:00,,0829.0,5.00,0.00,29.4,28.0,00.0,38.1,31.3,20.4,0000.0,0017.04,0006.60,0005.65
2022-08-18 23:19:00,,0829.0,5.00,0.00,29.4,28.2,00.0,38.1,31.4,20.8,0000.0,0017.23,0006.60,0005.66
2022-08-18 23:20:00,,0829.0,5.01,0.00,29.5,28.4,00.0,38.1,31.5,21.8,0000.0,0016.92,0006.59,0005.66
2022-08-18 23:21:00,,0829.0,5.00,0.00,29.5,28.4,00.0,38.1,31.5,22.2,0000.0,0016.60,0006.57,0005.66
2022-08-18 23:22:00,,0829.0,5.00,0.00,29.5,27.8,00.0,38.1,31.3,21.3,0000.0,0018.13,0006.59,0005.66
2022-08-18 23:23:00,,0828.9,5.01,0.00,29.4,27.2,00.0,38.1,31.2,20.4,0000.0,0018.34,0006.56,0005.66
2022-08-18 23:24:00,,0828.9,4.99,0.00,29.4,27.2,00.0,38.0,31.2,20.7,0000.0,0019.13,0006.52,0005.67
2022-08-18 23:25:00,,0828.9,5.01,0.00,29.3,27.3,00.0,38.0,31.1,20.8,0000.0,0018.87,0006.56,0005.68
2022-08-18 23:26:00,,0828.8,4.99,0.00,29.3,27.5,00.0,38.0,31.1,20.9,0000.0,0018.71,0006.55,0005.69
2022-08-18 23:27:00,,0828.9,5.00,0.00,29.3,27.7,00.0,38.1,31.3,20.6,0000.0,0018.24,0006.50,0005.68
2022-08-18 23:28:00,,0828.9,5.01,0.00,29.4,27.9,00.0,38.1,31.3,20.6,0000.0,0017.44,0006.46,0005.67
2022-08-18 23:29:00,,0828.9,5.00,0.00,29.4,28.1,00.0,38.1,31.4,20.9,0000.0,0017.08,0006.47,0005.67
2022-08-18 23:30:00,,0828.9,4.99,0.00,29.5,28.3,00.0,38.1,31.5,21.3,0000.0,0017.24,0006.53,0005.67
2022-08-18 23:31:00,,0828.9,5.00,0.00,29.5,28.5,00.0,38.1,31.6,20.6,0000.0,0018.11,0006.57,0005.67
2022-08-18 23:32:00,,0828.9,4.99,0.00,29.6,28.3,00.0,38.1,31.5,20.4,0000.0,0018.76,0006.60,0005.67
2022-08-18 23:33:00,,0828.9,5.00,0.00,29.5,27.6,00.0,38.1,31.3,20.3,0000.0,0017.95,0006.61,0005.67
2022-08-18 23:34:00,,0828.8,5.00,0.00,29.4,27.3,00.0,38.1,31.2,20.5,0000.0,0018.46,0006.59,0005.66
2022-08-18 23:35:00,,0828.9,4.99,0.00,29.4,27.3,00.0,38.1,31.2,20.2,0000.0,0018.28,0006.61,0005.66
2022-08-18 23:36:00,,0828.9,5.01,0.00,29.4,27.4,00.0,38.1,31.2,20.9,0000.0,0019.26,0006.57,0005.65
2022-08-18 23:37:00,,0828.9,4.99,0.00,29.4,27.6,00.0,38.1,31.2,21.4,0000.0,0019.78,0006.56,0005.64
2022-08-18 23:38:00,,0828.8,5.01,0.00,29.4,27.8,00.0,38.1,31.3,20.4,0000.0,0019.81,0006.57,0005.64
2022-08-18 23:39:00,,0828.9,5.00,0.00,29.4,28.0,00.0,38.1,31.4,20.5,0000.0,0019.87,0006.59,0005.65
2022-08-18 23:40:00,,0828.8,5.00,0.00,29.5,28.2,00.0,38.1,31.5,21.0,0000.0,0019.86,0006.60,0005.66
2022-08-18 23:41:00,,0828.9,5.00,0.00,29.5,28.4,00.0,38.2,31.6,20.9,0000.0,0019.88,0006.59,0005.67
2022-08-18 23:42:00,,0828.8,4.99,0.00,29.6,28.4,00.0,38.2,31.5,20.5,0000.0,0019.30,0006.55,0005.68
2022-08-18 23:43:00,,0828.8,5.00,0.00,29.5,27.6,00.0,38.1,31.3,20.3,0000.0,0018.63,0006.55,0005.70
2022-08-18 23:44:00,,0829.1,5.00,0.00,29.4,27.3,00.0,38.1,31.2,20.2,0000.0,0019.65,0006.56,0005.71
2022-08-18 23:45:00,,0829.3,5.00,0.00,29.4,27.3,00.0,38.1,31.1,20.7,0000.0,0019.49,0006.56,0005.72
2022-08-18 23:46:00,,0829.1,4.99,0.00,29.3,27.4,00.0,38.1,31.1,20.9,0000.0,0019.25,0006.55,0005.72
2022-08-18 23:47:00,,0829.3,5.01,0.00,29.3,27.6,00.0,38.1,31.2,20.8,0000.0,0019.72,0006.59,0005.72
2022-08-18 23:48:00,,0829.3,5.00,0.00,29.4,27.8,00.0,38.1,31.3,21.2,0000.0,0020.42,0006.61,0005.73
2022-08-18 23:49:00,,0829.3,5.00,0.00,29.4,28.0,00.0,38.1,31.3,20.9,0000.0,0020.10,0006.62,0005.76
2022-08-18 23:50:00,,0829.2,5.00,0.00,29.5,28.2,00.0,38.1,31.4,20.9,0000.4,0019.70,0006.65,0005.77
2022-08-18 23:51:00,,0829.1,5.00,0.00,29.5,28.4,00.0,38.2,31.5,21.3,0000.0,0020.02,0006.66,0005.77
2022-08-18 23:52:00,,0828.9,5.00,0.00,29.5,28.4,00.0,38.2,31.5,21.1,0000.0,0020.38,0006.64,0005.78
2022-08-18 23:53:00,,0829.1,5.01,0.00,29.5,27.8,00.0,38.1,31.3,21.1,0000.0,0020.41,0006.66,0005.78
2022-08-18 23:54:00,,0829.3,4.99,0.00,29.4,27.3,00.0,38.1,31.2,20.8,0000.0,0020.22,0006.66,0005.77
2022-08-18 23:55:00,,0829.0,5.01,0.00,29.4,27.3,00.0,38.1,31.2,20.9,0000.0,0019.60,0006.64,0005.77
2022-08-18 23:56:00,,0829.3,4.99,0.00,29.3,27.4,00.0,38.1,31.1,20.8,0000.0,0018.70,0006.65,0005.77
2022-08-18 23:57:00,,0829.3,5.00,0.00,29.3,27.6,00.0,38.1,31.2,21.1,0000.0,0018.72,0006.66,0005.78
2022-08-18 23:58:00,,0829.2,4.99,0.00,29.4,27.8,00.0,38.1,31.3,21.2,0000.0,0018.02,0006.62,0005.77
2022-08-18 23:59:00,,0829.3,4.99,0.00,29.4,28.0,00.0,38.1,31.4,21.6,0000.0,0015.92,0006.59,0005.77
